Temperature
28 29 29 30 30 29 29 29 29 29 28 27 27 27 26 25 23 23 21 20 19 19 18 18 18 18 18 18 18 18 18 18 18 17 17 17 17 16 16 16 16 15 15 15
28 29 30 30 29 29 29 29 29 28 27 27 27 27 26 25 24 23 22 21 20 19 18 17 17 17 18 18 18 18 18 18 18 17 17 17 17 16 16 16 16 15 15 15
28 30 30 29 29 29 29 29 29 28 27 27 26 27 26 25 23 22 22 21 20 20 19 18 17 17 18 18 18 18 18 18 18 17 17 17 17 16 16 16 15 15 15 15
29 30 29 29 29 29 29 29 28 28 27 28 27 27 27 26 24 23 22 21 21 20 20 19 18 18 18 18 18 18 18 18 18 17 17 17 17 16 16 16 15 15 15 14
29 29 29 29 29 29 29 28 28 28 28 28 27 27 28 26 25 24 23 22 21 21 20 19 19 18 18 18 18 18 18 18 18 17 17 17 16 16 16 16 15 15 15 14
29 30 30 30 29 29 28 27 27 27 28 27 27 27 27 27 26 26 24 22 22 21 20 20 19 18 18 18 18 18 18 18 18 18 17 17 16 16 16 16 15 15 15 14
29 30 30 29 29 28 28 28 27 27 27 28 27 27 28 28 27 26 25 23 22 21 21 20 19 19 18 18 18 18 18 18 18 18 17 17 17 16 16 16 15 15 15 15
28 29 30 30 29 29 28 28 27 26 27 28 27 27 28 28 26 25 24 24 22 22 21 20 20 19 18 18 18 18 18 18 18 18 18 17 17 16 16 16 16 15 15 15
29 29 30 29 29 29 28 28 29 28 28 27 28 28 28 27 26 26 25 24 23 22 22 21 20 20 19 19 18 18 18 18 18 18 18 18 17 16 16 16 16 15 15 15
29 28 29 29 28 28 28 29 28 28 26 26 27 28 28 27 27 26 26 25 24 23 22 22 21 20 20 19 19 18 18 18 18 18 18 18 17 17 16 16 16 15 15 15
29 28 28 28 28 28 27 27 27 28 27 26 26 28 29 28 28 27 26 25 24 24 23 22 22 21 20 20 19 19 19 19 19 18 18 18 17 17 17 16 16 16 15 15
28 28 28 28 28 28 28 28 28 26 26 27 27 28 29 28 28 27 27 26 25 24 24 23 22 21 21 20 20 19 19 19 19 19 18 18 18 17 17 16 16 16 15 15
27 27 26 26 26 26 27 27 28 28 27 27 27 28 28 28 28 27 26 25 25 24 24 23 23 22 21 21 20 20 19 19 19 19 19 18 18 18 17 17 16 16 16 15
26 27 27 26 27 27 27 27 27 27 27 27 27 28 28 28 27 26 25 25 24 24 23 23 23 22 21 21 20 20 20 20 19 19 19 19 18 18 17 17 16 16 16 15
26 26 27 27 27 27 27 27 27 26 27 27 27 28 27 27 26 25 24 24 24 23 23 23 22 22 21 21 20 20 20 20 19 19 19 19 19 18 17 17 16 16 16 15
25 25 26 26 27 26 26 27 27 27 27 27 27 27 26 25 24 23 23 23 23 23 23 22 22 21 21 21 20 20 20 20 20 20 19 19 19 18 18 17 17 16 16 15
25 24 25 25 26 25 25 27 26 26 27 27 26 26 25 24 22 21 21 21 22 22 22 22 21 21 21 21 20 20 20 20 19 20 19 19 18 18 18 17 17 16 16 16
24 24 24 25 24 23 26 26 26 26 26 26 25 25 24 22 20 19 18 19 20 20 21 21 21 20 20 20 20 19 19 19 19 19 19 18 18 18 18 17 17 16 16 16
23 23 24 24 24 25 25 25 25 25 25 24 24 23 22 21 21 20 17 17 18 18 19 19 19 19 19 19 19 19 19 19 19 18 18 18 18 18 17 17 17 16 16 16
22 22 24 23 23 24 24 24 23 24 23 22 23 22 22 22 23 21 17 16 16 17 17 18 18 18 18 18 18 18 18 18 18 18 17 17 17 17 17 17 17 16 16 16
22 22 23 23 23 24 24 23 23 23 22 21 21 21 21 20 19 17 16 15 15 16 16 16 17 17 17 17 17 17 17 17 17 17 17 17 17 17 16 16 16 16 15 15
23 23 23 23 23 23 23 23 23 21 19 20 19 19 18 17 16 16 15 15 15 15 15 15 16 16 16 16 16 16 16 16 16 16 16 16 16 16 16 16 15 15 15 14
23 23 24 23 23 21 21 21 20 19 19 19 18 18 17 17 16 15 15 14 14 14 14 14 15 15 15 15 15 15 15 15 15 15 15 16 16 15 15 15 14 14 14 14
22 21 22 22 22 21 20 19 18 18 18 18 17 17 17 16 15 15 14 14 13 13 13 14 14 14 14 14 14 14 14 14 14 14 14 15 15 14 14 14 13 13 13 13
21 21 22 21 21 20 19 18 18 17 17 16 16 16 15 15 15 14 14 13 13 13 13 13 13 13 13 13 13 13 13 13 13 13 13 13 13 13 13 13 13 12 12 12
20 20 21 21 19 20 18 17 17 16 16 15 15 15 15 14 14 13 13 13 12 12 12 12 12 12 12 12 12 12 12 12 12 12 12 12 12 12 12 12 11 11 11 11
Wind_Speed
7 9 9 5 6 9 10 10 10 6 2 5 8 7 5 6 7 8 10 11 12 12 11 11 11 10 11 11 11 12 11 10 9 8 8 7 7 6 6 6 7 6 5 5
10 12 9 7 7 9 10 10 8 3 1 5 7 8 5 6 7 8 10 11 13 13 13 12 12 11 12 13 13 12 11 11 11 8 7 6 6 6 6 5 7 6 6 5
14 7 2 7 9 9 9 9 9 7 4 6 7 7 5 6 6 7 9 11 12 14 15 15 13 13 13 13 14 12 12 12 11 10 8 7 6 6 6 6 6 6 6 5
12 10 8 10 10 9 9 5 6 6 8 6 4 7 2 5 7 9 10 11 13 14 15 16 15 14 14 14 14 13 12 12 11 11 10 10 8 7 7 6 6 7 7 6
11 8 9 11 9 8 6 3 5 7 9 8 4 7 1 5 6 9 11 12 14 15 16 16 16 16 15 14 13 13 12 12 11 11 10 10 8 7 6 6 7 7 6 6
16 11 9 9 5 5 3 4 6 7 8 5 3 5 2 1 3 6 10 13 14 15 16 16 15 15 14 14 13 13 13 13 12 12 12 11 9 8 7 7 7 7 6 6
17 15 11 9 8 6 7 8 7 5 4 2 2 5 3 1 4 6 10 13 14 15 15 16 16 16 16 16 15 15 15 14 14 13 12 11 10 9 9 8 8 7 6 7
15 13 12 9 10 7 8 9 8 7 7 6 2 3 3 3 5 7 9 12 13 15 15 16 17 16 17 17 17 16 16 15 15 14 12 11 11 9 8 8 7 7 6 6
12 11 5 6 6 7 6 8 8 9 10 8 3 2 1 5 7 9 11 13 14 16 16 17 17 17 17 18 18 17 17 16 15 14 13 12 11 10 8 8 8 7 6 6
12 11 8 6 6 6 7 6 5 7 7 7 5 4 2 4 8 11 12 14 15 16 17 17 17 18 17 17 17 17 17 16 15 15 13 11 12 11 10 9 9 7 7 7
13 12 10 8 10 10 7 8 8 8 7 8 7 3 4 0 5 10 12 13 15 16 17 17 17 17 17 17 17 17 17 16 15 15 14 13 12 12 11 10 10 9 9 9
11 9 11 10 4 4 9 11 10 9 8 8 9 5 5 2 3 6 9 11 13 15 16 17 17 17 17 18 18 18 17 17 16 15 14 14 13 12 12 12 11 11 10 10
8 7 9 8 7 7 8 10 11 10 9 9 10 4 7 2 1 3 6 9 11 14 15 16 16 17 17 18 18 18 18 17 16 15 15 15 14 14 14 13 12 11 11 11
5 7 11 11 5 4 7 10 11 11 10 10 10 9 2 1 1 1 3 7 10 12 14 15 16 16 16 17 17 17 17 17 16 16 16 16 15 15 14 13 13 12 12 12
5 9 10 10 6 7 9 10 11 13 13 13 11 9 6 4 3 2 2 5 8 11 12 14 15 15 15 16 16 16 16 16 15 16 16 16 15 14 14 13 13 12 12 12
5 6 7 9 7 8 11 11 12 13 13 14 13 10 3 3 3 2 1 2 5 8 10 11 12 13 14 15 15 15 15 15 15 15 15 14 14 14 14 13 13 13 12 12
7 6 7 9 5 8 12 9 9 9 8 9 10 4 2 3 5 5 4 2 2 3 5 7 8 10 10 12 13 13 13 13 13 14 13 13 13 14 14 14 13 13 13 13
6 6 5 6 5 9 2 1 3 5 5 3 3 2 2 3 5 6 6 4 3 0 1 3 4 5 6 7 9 10 11 11 12 12 12 12 13 13 12 13 13 13 12 12
4 5 4 6 9 7 3 2 2 4 2 2 1 1 2 5 6 7 8 6 5 4 3 2 1 2 3 4 6 8 8 9 10 10 11 11 11 11 12 12 12 12 11 11
4 6 6 6 7 5 2 4 0 3 3 4 3 2 1 3 3 5 7 7 6 6 5 5 4 5 4 3 5 6 7 7 7 7 7 7 8 9 10 10 10 10 10 10
7 6 8 8 7 3 5 2 3 4 2 5 4 4 3 4 6 6 6 8 8 8 8 7 7 7 7 5 5 5 4 3 3 3 4 5 6 7 7 7 8 8 9 9
6 6 6 6 6 2 4 1 1 3 6 5 6 7 8 9 9 8 9 9 10 10 10 9 9 9 8 7 6 5 4 2 2 3 3 4 4 5 5 6 7 7 8 9
4 2 2 1 2 5 4 4 4 5 6 6 7 9 10 10 10 10 10 10 11 11 11 10 11 11 10 9 8 7 5 4 3 3 3 3 3 2 3 4 6 6 7 8
2 0 1 1 3 4 4 4 5 6 7 9 10 10 11 12 11 10 10 10 10 11 10 10 11 11 11 10 9 8 7 5 4 3 3 2 2 1 1 3 4 5 5 6
2 1 1 1 3 4 5 5 7 9 10 12 12 12 12 12 11 10 9 9 9 9 9 9 10 10 10 9 8 8 7 5 5 4 3 3 2 1 0 1 2 4 4 4
4 4 4 2 2 1 5 6 9 11 12 13 14 13 12 12 11 10 9 8 8 9 8 9 9 9 9 8 8 8 7 5 5 5 4 3 3 2 2 2 2 2 4 4
Wind_Direction
212 241 245 267 290 301 302 302 308 324 296 259 267 271 247 197 203 202 193 186 182 183 176 173 179 180 178 176 173 174 171 166 166 166 165 164 163 160 154 152 145 148 140 137
229 238 254 281 284 280 283 292 304 307 246 268 282 274 249 206 209 206 197 190 187 181 175 179 183 183 184 183 181 178 176 175 176 166 162 165 156 160 158 159 151 157 154 156
236 248 266 274 277 284 284 298 315 314 287 244 279 261 207 188 195 198 199 194 190 185 180 179 183 185 185 186 184 182 180 178 174 162 163 155 152 166 169 171 169 170 169 170
243 254 260 271 278 287 290 321 301 290 281 298 288 309 183 186 192 196 199 197 190 187 185 182 184 186 186 185 182 179 176 175 170 170 176 174 181 182 179 181 171 172 180 179
232 234 256 272 285 287 302 317 281 280 283 289 260 291 78 172 207 199 195 193 190 186 186 186 187 187 184 180 178 174 173 174 176 181 180 187 191 184 177 178 167 183 179 186
254 256 263 271 283 277 219 232 243 247 261 273 344 300 340 159 205 183 183 187 189 187 186 186 185 183 181 178 176 172 173 178 181 184 186 195 190 188 184 186 182 193 187 189
239 242 235 241 243 214 226 259 272 262 249 320 50 289 343 85 180 180 179 182 185 187 185 184 182 182 181 179 178 177 177 181 183 187 190 193 193 194 197 201 197 206 199 195
235 237 221 220 239 253 236 260 279 299 307 319 226 296 14 130 166 176 178 178 180 184 185 184 184 183 182 182 181 181 182 184 186 189 192 194 196 203 203 204 210 205 210 200
238 242 198 210 228 246 239 246 284 283 280 283 287 289 207 154 177 181 181 179 182 184 185 186 185 186 185 185 185 186 185 187 189 191 192 195 199 208 203 190 206 206 201 190
246 257 235 195 196 216 261 267 250 268 283 282 279 282 336 164 183 184 187 188 185 186 188 189 188 189 189 189 188 190 190 192 193 193 196 197 198 200 198 201 201 198 193 191
235 246 236 214 226 231 206 225 246 263 277 285 294 320 48 110 188 190 191 191 189 190 190 190 191 192 192 191 190 191 194 195 197 198 199 200 198 197 197 199 197 193 194 191
214 235 246 234 226 270 242 245 236 250 260 260 282 298 80 87 172 189 193 190 191 191 192 192 192 192 193 194 194 194 197 199 200 199 199 200 199 197 199 200 198 194 194 197
185 216 235 225 208 208 230 233 237 249 262 259 267 276 113 104 127 179 196 192 192 194 194 193 192 193 196 197 199 200 201 202 202 199 200 201 200 199 202 202 198 197 197 201
206 230 248 257 262 222 224 224 226 234 248 258 260 279 279 325 315 209 200 197 196 195 197 197 196 197 199 201 202 204 206 205 202 199 200 201 201 201 201 201 199 199 199 202
216 237 246 261 266 257 254 242 226 236 255 269 278 282 302 335 345 320 232 202 197 194 196 200 202 202 203 204 205 207 207 205 202 200 201 202 200 199 200 200 200 200 203 206
213 241 242 244 238 245 253 250 241 244 256 263 269 274 342 22 26 26 353 210 196 199 201 200 201 203 205 207 207 206 206 202 199 201 203 199 195 195 198 200 200 202 206 212
197 214 236 244 230 253 248 244 243 246 253 264 270 291 43 43 45 34 17 349 223 207 202 202 202 204 206 207 206 204 202 196 195 200 202 197 195 196 198 200 201 205 208 212
201 212 232 248 237 246 242 62 267 259 263 283 303 347 51 81 84 61 35 22 18 41 174 188 197 198 202 202 201 201 195 191 194 198 200 197 197 197 199 203 205 209 212 216
213 207 231 246 245 248 192 164 236 250 236 18 348 48 117 141 131 81 44 34 32 31 41 67 112 157 167 178 184 182 185 185 192 199 200 197 198 198 198 205 209 211 214 219
185 213 227 232 254 254 105 103 148 250 200 66 47 66 136 202 219 76 38 34 40 44 46 49 62 78 92 110 142 156 165 174 189 195 194 192 196 201 203 206 209 209 214 222
186 201 224 234 247 249 79 106 221 251 95 77 69 72 90 80 59 73 56 51 51 53 58 62 62 62 60 70 96 114 124 144 168 175 174 177 189 203 210 211 212 215 219 226
206 205 214 228 239 217 90 144 333 68 101 104 95 90 93 96 93 85 73 65 61 59 59 64 67 62 55 57 77 82 73 59 89 120 138 164 182 201 204 213 217 221 228 231
227 283 259 236 52 76 77 64 80 117 120 116 109 105 108 104 96 89 81 73 67 63 61 64 71 67 60 55 59 67 58 51 61 94 121 137 150 179 207 218 223 226 228 243
158 18 214 165 94 91 89 96 108 114 117 117 114 112 110 104 99 92 84 77 70 63 62 64 69 68 61 55 54 53 49 49 57 61 68 93 110 148 198 239 241 243 245 247
19 213 228 211 115 106 98 103 117 116 116 114 111 108 106 104 98 92 86 80 76 71 64 61 64 66 63 58 54 51 53 55 60 60 56 59 72 74 17 277 296 285 287 299
5 341 313 344 78 78 107 116 128 125 121 117 114 108 102 101 101 95 86 79 76 73 69 66 65 66 64 61 56 49 46 48 51 51 40 32 31 25 349 325 301 244 260 257
Height
1507 1504 1498 1494 1494 1495 1494 1494 1493 1490 1491 1494 1493 1492 1493 1498 1501 1503 1505 1508 1510 1513 1516 1519 1522 1525 1529 1533 1536 1540 1543 1546 1549 1553 1556 1558 1560 1562 1564 1566 1567 1568 1569 1569
1503 1499 1493 1492 1494 1494 1492 1493 1489 1488 1491 1492 1491 1490 1489 1494 1497 1500 1502 1505 1508 1511 1515 1518 1521 1524 1528 1531 1535 1538 1542 1545 1548 1551 1554 1557 1559 1561 1563 1565 1566 1567 1568 1568
1497 1490 1491 1493 1491 1491 1489 1489 1488 1489 1489 1489 1491 1486 1487 1491 1496 1498 1500 1503 1505 1508 1512 1516 1519 1523 1526 1529 1532 1536 1540 1543 1546 1549 1553 1555 1557 1560 1562 1564 1565 1566 1567 1568
1492 1489 1490 1490 1487 1487 1488 1485 1487 1489 1490 1485 1490 1491 1483 1486 1491 1495 1497 1499 1502 1506 1510 1514 1517 1520 1524 1528 1531 1535 1538 1541 1545 1548 1551 1554 1556 1559 1561 1563 1564 1564 1565 1566
1488 1487 1488 1489 1485 1485 1485 1487 1486 1486 1487 1487 1484 1489 1480 1483 1486 1488 1493 1496 1499 1503 1507 1511 1515 1519 1523 1526 1530 1533 1536 1539 1543 1546 1549 1552 1555 1558 1560 1561 1562 1563 1564 1564
1483 1482 1484 1483 1483 1484 1486 1487 1486 1485 1483 1491 1485 1489 1483 1477 1480 1483 1488 1493 1497 1501 1505 1509 1513 1517 1521 1524 1528 1531 1534 1537 1540 1544 1547 1550 1553 1555 1557 1559 1560 1561 1562 1563
1484 1479 1479 1481 1482 1484 1485 1488 1493 1493 1491 1488 1482 1486 1480 1473 1476 1480 1485 1490 1494 1499 1502 1507 1511 1514 1518 1522 1526 1529 1532 1535 1539 1542 1545 1548 1551 1553 1555 1557 1558 1559 1561 1562
1483 1482 1473 1475 1477 1478 1481 1483 1496 1504 1497 1485 1480 1483 1472 1472 1476 1480 1484 1488 1492 1496 1500 1504 1508 1511 1515 1519 1523 1527 1530 1533 1537 1540 1543 1546 1548 1551 1553 1554 1556 1557 1559 1560
1476 1478 1470 1472 1474 1476 1478 1479 1473 1483 1484 1489 1479 1474 1468 1471 1475 1479 1482 1486 1490 1494 1498 1502 1505 1509 1513 1517 1521 1524 1528 1531 1535 1538 1541 1543 1545 1548 1550 1551 1552 1554 1555 1556
1468 1477 1469 1471 1475 1476 1475 1472 1479 1483 1496 1496 1483 1477 1471 1470 1472 1475 1479 1483 1487 1491 1495 1499 1503 1507 1511 1515 1518 1522 1525 1528 1532 1535 1538 1540 1543 1545 1546 1548 1550 1551 1552 1553
1466 1475 1472 1472 1474 1472 1478 1479 1477 1476 1479 1492 1492 1480 1462 1465 1468 1471 1475 1480 1484 1488 1492 1496 1500 1504 1508 1512 1516 1519 1522 1525 1528 1532 1534 1537 1539 1541 1543 1545 1546 1547 1548 1549
1465 1469 1471 1468 1467 1468 1468 1470 1474 1485 1484 1482 1484 1477 1461 1464 1466 1470 1473 1477 1481 1485 1489 1493 1498 1502 1505 1509 1512 1515 1519 1522 1525 1528 1530 1533 1536 1538 1539 1541 1543 1544 1545 1546
1466 1470 1479 1478 1477 1473 1470 1468 1469 1470 1474 1478 1482 1475 1462 1464 1466 1470 1473 1476 1480 1483 1487 1491 1494 1498 1502 1505 1509 1512 1515 1518 1521 1524 1526 1529 1531 1533 1535 1537 1539 1540 1541 1543
1465 1466 1470 1476 1471 1465 1468 1468 1468 1470 1475 1474 1472 1468 1461 1464 1466 1470 1473 1475 1478 1481 1484 1487 1491 1494 1498 1501 1504 1507 1511 1514 1517 1519 1522 1524 1526 1529 1531 1533 1535 1536 1538 1539
1465 1464 1462 1461 1460 1462 1464 1464 1466 1468 1466 1469 1465 1463 1463 1465 1469 1472 1473 1475 1476 1479 1481 1484 1487 1490 1494 1497 1500 1503 1506 1509 1512 1515 1517 1519 1522 1525 1527 1529 1531 1532 1534 1535
1464 1464 1463 1464 1461 1462 1464 1461 1461 1463 1463 1463 1462 1463 1464 1469 1471 1473 1473 1474 1475 1477 1479 1481 1484 1486 1489 1492 1495 1498 1500 1504 1506 1509 1512 1515 1517 1520 1522 1524 1526 1528 1530 1531
1461 1465 1468 1466 1461 1465 1467 1458 1459 1460 1459 1461 1462 1462 1466 1470 1473 1475 1476 1475 1475 1476 1477 1479 1481 1483 1485 1488 1490 1493 1496 1499 1501 1504 1507 1510 1512 1515 1517 1520 1522 1523 1525 1527
1463 1464 1465 1464 1469 1480 1462 1457 1457 1459 1459 1461 1463 1465 1469 1472 1475 1477 1477 1477 1476 1476 1477 1478 1479 1481 1483 1485 1487 1489 1492 1494 1497 1500 1502 1505 1507 1510 1512 1515 1517 1518 1520 1522
1463 1464 1465 1467 1468 1464 1458 1458 1459 1461 1462 1464 1465 1467 1470 1472 1473 1476 1478 1478 1477 1477 1477 1478 1478 1479 1481 1482 1484 1486 1488 1491 1493 1496 1498 1500 1503 1505 1507 1510 1512 1514 1516 1517
1464 1463 1464 1467 1472 1472 1461 1459 1462 1463 1466 1468 1468 1469 1470 1470 1467 1476 1480 1479 1478 1477 1477 1477 1478 1478 1479 1480 1482 1484 1485 1488 1490 1492 1494 1496 1499 1501 1503 1506 1508 1509 1510 1512
1463 1464 1463 1465 1467 1458 1459 1461 1463 1469 1470 1471 1471 1472 1472 1474 1476 1481 1481 1480 1479 1478 1478 1477 1478 1478 1479 1480 1481 1482 1484 1486 1488 1490 1491 1492 1494 1497 1499 1502 1503 1505 1506 1506
1456 1459 1462 1462 1467 1467 1462 1461 1463 1469 1471 1472 1474 1475 1476 1479 1481 1482 1482 1482 1481 1480 1479 1479 1478 1478 1479 1480 1481 1482 1483 1485 1486 1487 1488 1490 1491 1493 1495 1497 1498 1499 1500 1500
1452 1453 1451 1456 1463 1465 1465 1466 1469 1471 1472 1474 1476 1478 1479 1481 1483 1484 1484 1484 1483 1482 1481 1481 1480 1480 1480 1481 1482 1482 1483 1484 1485 1486 1487 1487 1488 1489 1491 1492 1493 1493 1494 1495
1455 1458 1456 1459 1461 1466 1468 1470 1471 1472 1474 1476 1478 1480 1482 1483 1485 1486 1487 1487 1486 1485 1484 1484 1483 1482 1482 1482 1483 1483 1483 1483 1484 1484 1485 1485 1485 1486 1487 1488 1489 1489 1490 1490
1457 1458 1457 1461 1464 1467 1470 1472 1473 1475 1477 1479 1480 1483 1484 1486 1488 1489 1489 1489 1489 1488 1488 1487 1485 1484 1484 1484 1484 1483 1483 1484 1484 1483 1484 1483 1483 1483 1484 1484 1485 1485 1485 1484
1463 1463 1462 1462 1467 1468 1472 1474 1475 1477 1479 1482 1483 1486 1488 1489 1491 1491 1492 1492 1491 1491 1490 1489 1488 1487 1487 1487 1486 1485 1484 1485 1484 1483 1483 1483 1483 1483 1483 1483 1482 1480 1480 1479